Location: Carrières
(48.9495°N, 2.0407°E)
Time: 16:38:47
(UTC+00:00)

Cosmos 676 Rocket - Pass Details

Date: 28 January 2023
Orbit: 754 x 782 km, 74.0° (Epoch: 25 March)

Event Time Altitude Azimuth Distance (km) Brightness Sun altitude
Rises 19:12:11 0° 191° (SSW) 3,252 7.4 -24.5°
Reaches altitude 10° 19:14:34 10° 189° (S) 2,325 6.6 -24.9°
Enters shadow 19:18:26 47° 167° (SSE) 1,027 4.5 -25.6°
